Погода в Невском

Россия / Новгородская область     58°07′44″N   30°26′26″E
темп.,
°C
ветер,
м/с
пор.,
м/с
влажн.,
%
обл.,
%
осадки,
мм/ч
давл.,
гПа
погр.,
м
19 мая, ср
ср1900:00+15св2297100 2.6 100344
03:00+14св3696100 3.2 1001124
06:00+15в389785 0.3 1000237
09:00+19вюв47835 0.3 1000458
12:00+21ююв4883100 1.8 9991050
15:00+19ю610855 5.6 999991
18:00+16ююз5119386 2.7 1001613
21:00+14ююз239883 3.2 100393
20 мая, чт
чт2000:00+12ююз009867 0.0 100410
03:00+12ссз1199100 0.0 100410
06:00+13зсз249899 0.0 1004228
09:00+12сз3598100 0.2 1004268
12:00+12зсз3698100 2.3 1003295
15:00+12сз4895100 4.9 1002457
18:00+11з4897100 1.6 1003545
21:00+10з5997100 1.8 1003591
21 мая, пт
пт2100:00+9з41295100 0.0 1004698
03:00+9зюз4119538 0.0 1005629
06:00+6зюз412925 0.0 1006464
09:00+11юз510690 0.0 1006763
12:00+15юз694943 0.0 10072146
15:00+14юз695812 0.3 10081848
18:00+14юз4105753 1.0 10082476
21:00+10зюз410592 1.1 1010520
22 мая, сб
сб2200:00+7ююз3107598 0.0 1012269
03:00+8ююз3108399 0.0 1012397
06:00+9ю41182100 0.0 1012399
09:00+13ю51267100 0.0 1012690
12:00+16ю61263100 0.3 10111915
15:00+11ююз51394100 3.2 10111142
18:00+11ююз31293100 0.6 1011644
21:00+11ю31095100 0.6 1011426
23 мая, вс
вс2300:00+11ю3998100 0.9 1011417
03:00+11юв399899 1.3 1010248
06:00+11ююв41394100 0.0 1008395
09:00+13ююв4989100 0.1 1007443
12:00+14ююв41289100 0.8 1005742
15:00+14ю51293100 4.6 1003906
18:00+13ююз41093100 1.8 1002709
21:00+11юз4119765 2.5 1004496